Santa Fe, NM

9:04 PM MDT on March 26, 2017 (GMT -0600)
Santa Fe Municipal

Weather History for KSAF - October, 2012

Change the Weather History Date:

Saturday, October 13, 2012

  Actual Average Record
Temperature  
Mean Temperature 48 °F -  
Max Temperature 62 °F 76 °F 82 °F (2015)
Min Temperature 35 °F 37 °F 23 °F (1997)
Degree Days  
Heating Degree Days 18    
Moisture  
Dew Point 31 °F    
Average Humidity 57    
Maximum Humidity 82    
Minimum Humidity 31    
Precipitation  
Precipitation 0.00 in - - ()
Sea Level Pressure  
Sea Level Pressure 29.98 in    
Wind  
Wind Speed 6 mph (NW)    
Max Wind Speed 17 mph    
Max Gust Speed 28 mph    
Visibility 10 miles    
Events      
Averages and records for this station are not official NWS values.
T = Trace of Precipitation, MM = Missing Value Source: NWS Daily Summary

Daily Weather History Graph

Daily Weather History Graph

Search for Another Location

Airport or City:

Trip Planner

Search our weather history database for the weather conditions in past years. The results will help you decide how hot, cold, wet, or windy it might be!

Date:

Astronomy

Oct. 13, 2012 Rise Set
Actual Time 7:09 AM MDT 6:30 PM MDT
Civil Twilight 6:43 AM MDT 6:56 PM MDT
Nautical Twilight 6:14 AM MDT 7:25 PM MDT
Astronomical Twilight 5:44 AM MDT 7:55 PM MDT
Moon 5:05 AM MDT (10/13) 5:14 PM MDT (10/13)
Length of Visible Light 12h 12m
Length of Day
11h 21m
Waning Crescent, 4% of the Moon is Illuminated
Oct 13
Waning Crescent
Oct 15
New
Oct 21
First Quarter
Oct 29
Full
Nov 6
Last Quarter

Hourly Weather History & Observations

Time (MDT) Temp. Windchill Dew Point Humidity Pressure Visibility Wind Dir Wind Speed Gust Speed Precip Events Conditions
12:53 AM 46.9 °F - 30.9 °F 54% 29.89 in 10.0 mi WNW 3.5 mph - N/A   Clear
1:53 AM 39.9 °F 37.8 °F 32.0 °F 73% 29.92 in 10.0 mi West 3.5 mph - N/A   Clear
2:53 AM 42.1 °F - 30.0 °F 62% 29.92 in 10.0 mi Calm Calm - N/A   Clear
3:53 AM 37.9 °F 33.5 °F 30.0 °F 73% 29.93 in 10.0 mi NW 5.8 mph - N/A   Clear
4:53 AM 35.1 °F 31.0 °F 30.0 °F 82% 29.96 in 10.0 mi North 4.6 mph - N/A   Clear
5:53 AM 39.0 °F 35.7 °F 28.9 °F 67% 29.94 in 10.0 mi NW 4.6 mph - N/A   Clear
6:53 AM 37.9 °F - 28.9 °F 70% 29.96 in 10.0 mi Calm Calm - N/A   Clear
7:53 AM 36.0 °F 33.3 °F 30.0 °F 79% 29.99 in 10.0 mi WSW 3.5 mph - N/A   Clear
8:53 AM 43.0 °F 37.2 °F 33.1 °F 68% 29.99 in 10.0 mi WSW 10.4 mph - N/A   Clear
9:53 AM 48.0 °F - 34.0 °F 58% 30.00 in 10.0 mi West 13.8 mph - N/A   Clear
10:53 AM 51.1 °F - 28.9 °F 43% 29.99 in 10.0 mi West 11.5 mph 23.0 mph N/A   Partly Cloudy
11:53 AM 52.0 °F - 28.9 °F 41% 29.99 in 10.0 mi West 15.0 mph 24.2 mph N/A   Overcast
12:53 PM 53.1 °F - 30.0 °F 41% 29.96 in 10.0 mi NW 10.4 mph 24.2 mph N/A   Mostly Cloudy
2:53 PM 57.9 °F - 30.0 °F 35% 29.94 in 10.0 mi North 15.0 mph 24.2 mph N/A   Clear
3:53 PM 60.1 °F - 28.9 °F 31% 29.96 in 10.0 mi North 12.7 mph - N/A   Clear
4:53 PM 57.9 °F - 30.9 °F 36% 29.97 in 10.0 mi North 17.3 mph 27.6 mph N/A   Clear
6:53 PM 51.1 °F - 32.0 °F 48% 30.04 in 10.0 mi North 9.2 mph - N/A   Clear
8:53 PM 46.9 °F - 33.1 °F 59% 30.11 in 10.0 mi NE 6.9 mph - N/A   Clear
11:53 PM 45.0 °F 40.1 °F 35.1 °F 68% 30.11 in 10.0 mi North 9.2 mph - N/A   Clear